Location: Étavigny
(49.1201°N, 2.9800°E)
Time: 07:33:28
(UTC+00:00)

DELTA 2 DEB (DPAF) - Pass Details

Date: 28 January 2023
Orbit: 624 x 629 km, 98.4° (Epoch: 24 March)

Event Time Altitude Azimuth Distance (km) Brightness Sun altitude
Rises 17:16:08 0° 18° (NNE) 2,926 7.2 -6.6°
Reaches altitude 10° 17:18:23 10° 22° (NNE) 2,016 6.3 -6.9°
Maximum altitude 17:22:41 56° 101° (E) 757 4.2 -7.6°
Drops below altitude 10° 17:26:55 10° 180° (S) 1,978 6.9 -8.2°
Sets 17:29:13 0° 185° (S) 2,913 7.8 -8.6°
